User: anonymous   Login
Location: Unspecified
(0.0000°N, 0.0000°E)
Time: 07:31:44
(UTC+00:00)
Language:

APRIZESAT 3 - Orbit

View from above orbital plane
View from above orbital plane
View from above satellite
View from above satellite

Ground track
Ground track

The orbit data is extracted from the following two-line orbital elements,

1 35686U 09041F   18115.95869197 +.00000130 +00000-0 +20630-4 0  9991
2 35686 098.2749 133.7372 0074434 077.7121 283.2415 14.87196579473626
Epoch (UTC): 25 April 2018 23:00:30
Eccentricity: 0.0074434
inclination: 98.2749°
perigee height: 555 km
apogee height: 658 km
right ascension of ascending node: 133.7372°
argument of perigee: 77.7121°
revolutions per day: 14.87196579
mean anomaly at epoch: 283.2415°
orbit number at epoch: 47362

The dashed part of the orbit path shows where the satellite is in the earth's shadow,  

DLR